| time (UTC) | temp F | wind direction | speed MPH | gust MPH | rain 1hr in | rain 24hr in | rain mn in | humidity % | barometer mb |
| 20260510214823 | 89 | 133 | 2.0 | 9.0 | 0.00 | 0.00 | 0.00 | 60 | 1012.8 |
| 20260510214329 | 88 | 111 | 3.0 | 7.0 | 0.00 | 0.00 | 0.00 | 59 | 1012.8 |
| 20260510213835 | 89 | 125 | 3.0 | 7.0 | 0.00 | 0.00 | 0.00 | 59 | 1012.8 |
| 20260510213322 | 89 | 62 | 3.0 | 9.0 | 0.00 | 0.00 | 0.00 | 59 | 1013.1 |
| 20260510212828 | 89 | 138 | 3.0 | 6.0 | 0.00 | 0.00 | 0.00 | 59 | 1013.1 |
| 20260510212333 | 89 | 84 | 1.0 | 6.0 | 0.00 | 0.00 | 0.00 | 59 | 1013.1 |
| 20260510211842 | 90 | 67 | 2.0 | 5.0 | 0.00 | 0.00 | 0.00 | 58 | 1013.1 |
| 20260510211326 | 90 | 85 | 3.0 | 5.0 | 0.00 | 0.00 | 0.00 | 59 | 1013.1 |
| 20260510210834 | 90 | 11 | 3.0 | 7.0 | 0.00 | 0.00 | 0.00 | 60 | 1013.1 |
| 20260510210337 | 90 | 42 | 2.0 | 13.0 | 0.00 | 0.00 | 0.00 | 60 | 1013.1 |
| 20260510205840 | 90 | 127 | 6.0 | 13.0 | 0.00 | 0.00 | 0.00 | 60 | 1013.1 |
| 20260510205324 | 89 | 134 | 4.0 | 10.0 | 0.00 | 0.00 | 0.00 | 59 | 1013.1 |
| 20260510204827 | 90 | 139 | 3.0 | 13.0 | 0.00 | 0.00 | 0.00 | 59 | 1012.9 |
| 20260510204334 | 91 | 141 | 5.0 | 13.0 | 0.00 | 0.00 | 0.00 | 57 | 1012.9 |
| 20260510203825 | 92 | 83 | 2.0 | 9.0 | 0.00 | 0.00 | 0.00 | 59 | 1012.9 |
| 20260510203331 | 91 | 124 | 3.0 | 9.0 | 0.00 | 0.00 | 0.00 | 57 | 1012.8 |
| 20260510202835 | 90 | 106 | 3.0 | 8.0 | 0.00 | 0.00 | 0.00 | 60 | 1012.8 |
| 20260510202343 | 90 | 113 | 4.0 | 10.0 | 0.00 | 0.00 | 0.00 | 61 | 1012.8 |
| 20260510201826 | 89 | 163 | 4.0 | 10.0 | 0.00 | 0.00 | 0.00 | 61 | 1012.8 |
| 20260510201351 | 89 | 137 | 3.0 | 9.0 | 0.00 | 0.00 | 0.00 | 62 | 1012.8 |
| 20260510200836 | 89 | 124 | 6.0 | 9.0 | 0.00 | 0.00 | 0.00 | 63 | 1012.8 |
| 20260510200339 | 89 | 134 | 4.0 | 13.0 | 0.00 | 0.00 | 0.00 | 63 | 1012.8 |
| 20260510195841 | 89 | 116 | 3.0 | 13.0 | 0.00 | 0.00 | 0.00 | 62 | 1012.8 |
| 20260510195326 | 89 | 149 | 8.0 | 12.0 | 0.00 | 0.00 | 0.00 | 64 | 1012.8 |
| 20260510194830 | 89 | 118 | 7.0 | 10.0 | 0.00 | 0.00 | 0.00 | 62 | 1012.8 |
| 20260510194333 | 89 | 111 | 3.0 | 11.0 | 0.00 | 0.00 | 0.00 | 63 | 1012.8 |
| 20260510193841 | 89 | 166 | 6.0 | 11.0 | 0.00 | 0.00 | 0.00 | 63 | 1012.8 |
| 20260510193325 | 88 | 88 | 2.0 | 11.0 | 0.00 | 0.00 | 0.00 | 65 | 1012.9 |
| 20260510192832 | 89 | 127 | 7.0 | 12.0 | 0.00 | 0.00 | 0.00 | 64 | 1012.9 |
| 20260510192336 | 88 | 141 | 6.0 | 14.0 | 0.00 | 0.00 | 0.00 | 66 | 1012.9 |
| 20260510191837 | 88 | 150 | 8.0 | 14.0 | 0.00 | 0.00 | 0.00 | 64 | 1013.1 |
| 20260510191341 | 89 | 107 | 3.0 | 13.0 | 0.00 | 0.00 | 0.00 | 65 | 1013.1 |
| 20260510190825 | 89 | 186 | 8.0 | 13.0 | 0.00 | 0.00 | 0.00 | 63 | 1013.1 |
| 20260510190331 | 89 | 113 | 4.0 | 11.0 | 0.00 | 0.00 | 0.00 | 63 | 1013.3 |
| 20260510185854 | 89 | 106 | 4.0 | 14.0 | 0.00 | 0.00 | 0.00 | 64 | 1013.3 |
| 20260510185336 | 88 | 144 | 7.0 | 19.0 | 0.00 | 0.00 | 0.00 | 65 | 1013.3 |
| 20260510184823 | 88 | 136 | 13.0 | 19.0 | 0.00 | 0.00 | 0.00 | 63 | 1013.3 |
| 20260510184331 | 88 | 124 | 4.0 | 13.0 | 0.00 | 0.00 | 0.00 | 64 | 1013.3 |
| 20260510183819 | 88 | 135 | 10.0 | 13.0 | 0.00 | 0.00 | 0.00 | 63 | 1013.3 |
| 20260510183346 | 88 | 134 | 3.0 | 12.0 | 0.00 | 0.00 | 0.00 | 66 | 1013.3 |
| 20260510182829 | 88 | 73 | 8.0 | 12.0 | 0.00 | 0.00 | 0.00 | 65 | 1013.3 |
| 20260510182333 | 88 | 139 | 7.0 | 11.0 | 0.00 | 0.00 | 0.00 | 66 | 1013.3 |
| 20260510181838 | 88 | 183 | 6.0 | 18.0 | 0.00 | 0.00 | 0.00 | 67 | 1013.7 |
| 20260510181323 | 87 | 133 | 9.0 | 18.0 | 0.00 | 0.00 | 0.00 | 68 | 1013.7 |
| 20260510180826 | 87 | 145 | 2.0 | 12.0 | 0.00 | 0.00 | 0.00 | 68 | 1013.7 |
| 20260510180331 | 87 | 130 | 5.0 | 14.0 | 0.00 | 0.00 | 0.00 | 68 | 1013.8 |
| 20260510175833 | 87 | 130 | 9.0 | 14.0 | 0.00 | 0.00 | 0.00 | 68 | 1013.8 |
| 20260510175340 | 86 | 77 | 4.0 | 10.0 | 0.00 | 0.00 | 0.00 | 71 | 1013.8 |
| 20260510174824 | 87 | 182 | 7.0 | 12.0 | 0.00 | 0.00 | 0.00 | 68 | 1013.8 |
| 20260510174329 | 87 | 125 | 1.0 | 7.0 | 0.00 | 0.00 | 0.00 | 69 | 1013.8 |
| 20260510173837 | 86 | 79 | 3.0 | 9.0 | 0.00 | 0.00 | 0.00 | 70 | 1013.8 |
| 20260510173322 | 86 | 124 | 2.0 | 13.0 | 0.00 | 0.00 | 0.00 | 72 | 1014.1 |
| 20260510172826 | 86 | 122 | 7.0 | 13.0 | 0.00 | 0.00 | 0.00 | 71 | 1014.1 |
| 20260510172331 | 86 | 142 | 10.0 | 13.0 | 0.00 | 0.00 | 0.00 | 70 | 1014.1 |
| 20260510171854 | 85 | 92 | 3.0 | 12.0 | 0.00 | 0.00 | 0.00 | 72 | 1014.3 |
| 20260510171338 | 85 | 135 | 4.0 | 13.0 | 0.00 | 0.00 | 0.00 | 72 | 1014.3 |
| 20260510170822 | 85 | 105 | 4.0 | 13.0 | 0.00 | 0.00 | 0.00 | 73 | 1014.3 |
| 20260510170326 | 85 | 144 | 4.0 | 7.0 | 0.00 | 0.00 | 0.00 | 74 | 1014.4 |
| 20260510165829 | 84 | 88 | 3.0 | 10.0 | 0.00 | 0.00 | 0.00 | 74 | 1014.4 |
| 20260510165332 | 84 | 64 | 5.0 | 10.0 | 0.00 | 0.00 | 0.00 | 74 | 1014.4 |
| 20260510164836 | 84 | 151 | 3.0 | 10.0 | 0.00 | 0.00 | 0.00 | 74 | 1014.6 |
| 20260510164323 | 84 | 121 | 5.0 | 11.0 | 0.00 | 0.00 | 0.00 | 75 | 1014.6 |
| 20260510163833 | 84 | 139 | 8.0 | 11.0 | 0.00 | 0.00 | 0.00 | 74 | 1014.6 |
| 20260510163340 | 84 | 99 | 5.0 | 11.0 | 0.00 | 0.00 | 0.00 | 74 | 1014.8 |
| 20260510162824 | 84 | 63 | 3.0 | 5.0 | 0.00 | 0.00 | 0.00 | 75 | 1014.8 |
| 20260510162328 | 83 | 104 | 2.0 | 8.0 | 0.00 | 0.00 | 0.00 | 77 | 1014.8 |
| 20260510161833 | 83 | 138 | 3.0 | 9.0 | 0.00 | 0.00 | 0.00 | 77 | 1014.9 |
| 20260510161357 | 83 | 142 | 6.0 | 10.0 | 0.00 | 0.00 | 0.00 | 77 | 1014.9 |
| 20260510160839 | 82 | 80 | 3.0 | 10.0 | 0.00 | 0.00 | 0.00 | 77 | 1014.9 |
| 20260510160402 | 83 | 136 | 2.0 | 8.0 | 0.00 | 0.00 | 0.00 | 78 | 1015.2 |
| 20260510155823 | 83 | 142 | 4.0 | 10.0 | 0.00 | 0.00 | 0.00 | 78 | 1015.2 |
| 20260510155327 | 82 | 88 | 4.0 | 11.0 | 0.00 | 0.00 | 0.00 | 77 | 1015.2 |
| 20260510154829 | 82 | 150 | 3.0 | 7.0 | 0.00 | 0.00 | 0.00 | 79 | 1015.1 |
| 20260510154333 | 82 | 78 | 3.0 | 7.0 | 0.00 | 0.00 | 0.00 | 78 | 1015.1 |
| 20260510153823 | 82 | 142 | 1.0 | 6.0 | 0.00 | 0.00 | 0.00 | 80 | 1015.1 |
| 20260510153331 | 82 | 42 | 2.0 | 7.0 | 0.00 | 0.00 | 0.00 | 79 | 1015.3 |
| 20260510152837 | 82 | 86 | 4.0 | 7.0 | 0.00 | 0.00 | 0.00 | 79 | 1015.3 |
| 20260510152341 | 81 | 88 | 2.0 | 4.0 | 0.00 | 0.00 | 0.00 | 80 | 1015.3 |
| 20260510151825 | 81 | 83 | 1.0 | 5.0 | 0.00 | 0.00 | 0.00 | 81 | 1015.4 |
| 20260510151327 | 81 | 79 | 2.0 | 6.0 | 0.00 | 0.00 | 0.00 | 83 | 1015.4 |
| 20260510150831 | 80 | 61 | 2.0 | 7.0 | 0.00 | 0.00 | 0.00 | 82 | 1015.4 |
| 20260510150335 | 80 | 87 | 1.0 | 7.0 | 0.00 | 0.00 | 0.00 | 83 | 1015.2 |
| 20260510145858 | 80 | 75 | 3.0 | 6.0 | 0.00 | 0.00 | 0.00 | 84 | 1015.2 |
| 20260510145341 | 80 | 309 | 1.0 | 9.0 | 0.00 | 0.00 | 0.00 | 83 | 1015.2 |
| 20260510144824 | 80 | 281 | 2.0 | 9.0 | 0.00 | 0.00 | 0.00 | 84 | 1015.0 |
| 20260510144330 | 80 | 28 | 4.0 | 9.0 | 0.00 | 0.00 | 0.00 | 84 | 1015.0 |
| 20260510143835 | 80 | 131 | 2.0 | 9.0 | 0.00 | 0.00 | 0.00 | 83 | 1015.0 |
| 20260510143358 | 80 | 134 | 3.0 | 7.0 | 0.00 | 0.00 | 0.00 | 85 | 1014.9 |
| 20260510142826 | 79 | 55 | 0.0 | 7.0 | 0.00 | 0.00 | 0.00 | 86 | 1014.9 |
| 20260510142328 | 79 | 99 | 2.0 | 7.0 | 0.00 | 0.00 | 0.00 | 86 | 1014.9 |
| 20260510141855 | 79 | 61 | 2.0 | 7.0 | 0.00 | 0.00 | 0.00 | 86 | 1015.0 |
| 20260510141340 | 79 | 151 | 1.0 | 7.0 | 0.00 | 0.00 | 0.00 | 87 | 1015.0 |
| 20260510140824 | 79 | 73 | 2.0 | 7.0 | 0.00 | 0.00 | 0.00 | 87 | 1015.0 |
| 20260510140332 | 78 | 63 | 3.0 | 6.0 | 0.00 | 0.00 | 0.00 | 88 | 1015.0 |
| 20260510135856 | 78 | 85 | 3.0 | 6.0 | 0.00 | 0.00 | 0.00 | 88 | 1015.0 |
| 20260510135338 | 78 | 40 | 3.0 | 7.0 | 0.00 | 0.00 | 0.00 | 89 | 1015.0 |
| 20260510134822 | 78 | 29 | 3.0 | 7.0 | 0.00 | 0.00 | 0.00 | 89 | 1014.8 |
| 20260510134350 | 78 | 104 | 4.0 | 6.0 | 0.00 | 0.00 | 0.00 | 89 | 1014.8 |
| 20260510133834 | 78 | 63 | 1.0 | 7.0 | 0.00 | 0.00 | 0.00 | 90 | 1014.8 |
| 20260510133337 | 77 | 125 | 1.0 | 7.0 | 0.00 | 0.00 | 0.00 | 90 | 1014.4 |
| 20260510132841 | 77 | 49 | 2.0 | 7.0 | 0.00 | 0.00 | 0.00 | 91 | 1014.4 |
| 20260510132327 | 77 | 52 | 2.0 | 5.0 | 0.00 | 0.00 | 0.00 | 92 | 1014.4 |
| 20260510131835 | 76 | 62 | 2.0 | 5.0 | 0.00 | 0.00 | 0.00 | 93 | 1014.3 |
| 20260510131340 | 76 | 87 | 3.0 | 6.0 | 0.00 | 0.00 | 0.00 | 93 | 1014.3 |
| 20260510130824 | 75 | 71 | 2.0 | 6.0 | 0.00 | 0.00 | 0.00 | 93 | 1014.3 |
| 20260510130348 | 75 | 59 | 2.0 | 6.0 | 0.00 | 0.00 | 0.00 | 93 | 1014.2 |
| 20260510125850 | 75 | 74 | 1.0 | 4.0 | 0.00 | 0.00 | 0.00 | 94 | 1014.2 |
| 20260510125336 | 75 | 81 | 2.0 | 4.0 | 0.00 | 0.00 | 0.00 | 94 | 1014.2 |
| 20260510124841 | 75 | 18 | 0.0 | 3.0 | 0.00 | 0.00 | 0.00 | 94 | 1013.8 |
| 20260510124345 | 75 | 86 | 0.0 | 3.0 | 0.00 | 0.00 | 0.00 | 94 | 1013.8 |
| 20260510123828 | 75 | 139 | 1.0 | 2.0 | 0.00 | 0.00 | 0.00 | 94 | 1013.8 |
| 20260510123352 | 75 | 139 | 0.0 | 2.0 | 0.00 | 0.00 | 0.00 | 94 | 1013.5 |
| 20260510122835 | 75 | 139 | 0.0 | 1.0 | 0.00 | 0.00 | 0.00 | 94 | 1013.5 |
| 20260510122338 | 75 | 139 | 0.0 | 1.0 | 0.00 | 0.00 | 0.00 | 94 | 1013.5 |
| 20260510121825 | 74 | 139 | 0.0 | 1.0 | 0.00 | 0.00 | 0.00 | 94 | 1013.3 |
| 20260510121333 | 74 | 139 | 0.0 | 1.0 | 0.00 | 0.00 | 0.00 | 94 | 1013.3 |
| 20260510120901 | 74 | 139 | 0.0 | 2.0 | 0.00 | 0.00 | 0.00 | 94 | 1013.3 |
| 20260510120328 | 74 | 139 | 0.0 | 2.0 | 0.00 | 0.00 | 0.00 | 94 | 1012.9 |
| 20260510115832 | 74 | 139 | 0.0 | 1.0 | 0.00 | 0.00 | 0.00 | 94 | 1012.9 |
| 20260510115336 | 74 | 139 | 0.0 | 1.0 | 0.00 | 0.00 | 0.00 | 94 | 1012.9 |
| 20260510114841 | 74 | 139 | 0.0 | 1.0 | 0.00 | 0.00 | 0.00 | 94 | 1012.3 |
| 20260510114344 | 74 | 139 | 0.0 | 1.0 | 0.00 | 0.00 | 0.00 | 94 | 1012.3 |
| 20260510113850 | 74 | 139 | 0.0 | 2.0 | 0.00 | 0.00 | 0.00 | 94 | 1012.3 |
| 20260510113334 | 74 | 139 | 0.0 | 2.0 | 0.00 | 0.00 | 0.00 | 94 | 1012.1 |
| 20260510112839 | 74 | 139 | 1.0 | 3.0 | 0.00 | 0.00 | 0.00 | 94 | 1012.1 |
| 20260510112323 | 74 | 139 | 0.0 | 3.0 | 0.00 | 0.00 | 0.00 | 94 | 1012.1 |
| 20260510111827 | 74 | 139 | 0.0 | 0.0 | 0.00 | 0.00 | 0.00 | 94 | 1011.7 |
| 20260510111332 | 74 | 139 | 0.0 | 2.0 | 0.00 | 0.00 | 0.00 | 94 | 1011.7 |
| 20260510110837 | 74 | 184 | 1.0 | 2.0 | 0.00 | 0.00 | 0.00 | 94 | 1011.7 |
| 20260510110401 | 74 | 184 | 1.0 | 2.0 | 0.00 | 0.00 | 0.00 | 94 | 1011.6 |
| 20260510105841 | 74 | 179 | 0.0 | 2.0 | 0.00 | 0.00 | 0.00 | 94 | 1011.6 |
| 20260510105330 | 74 | 179 | 1.0 | 3.0 | 0.00 | 0.00 | 0.00 | 94 | 1011.6 |
| 20260510104833 | 74 | 179 | 1.0 | 3.0 | 0.00 | 0.00 | 0.00 | 93 | 1011.6 |
| 20260510104337 | 74 | 184 | 1.0 | 4.0 | 0.00 | 0.00 | 0.00 | 94 | 1011.6 |
| 20260510103902 | 74 | 147 | 1.0 | 4.0 | 0.00 | 0.00 | 0.00 | 94 | 1011.6 |
| 20260510103326 | 74 | 169 | 2.0 | 4.0 | 0.00 | 0.00 | 0.00 | 93 | 1011.4 |
| 20260510102829 | 74 | 134 | 0.0 | 4.0 | 0.00 | 0.00 | 0.00 | 93 | 1011.4 |
| 20260510102353 | 74 | 162 | 1.0 | 5.0 | 0.00 | 0.00 | 0.00 | 93 | 1011.4 |
| 20260510101839 | 74 | 141 | 2.0 | 5.0 | 0.00 | 0.00 | 0.00 | 93 | 1011.3 |
| 20260510101323 | 74 | 156 | 1.0 | 4.0 | 0.00 | 0.00 | 0.00 | 94 | 1011.3 |
| 20260510100827 | 74 | 150 | 3.0 | 5.0 | 0.00 | 0.00 | 0.00 | 94 | 1011.3 |
| 20260510100335 | 74 | 156 | 3.0 | 5.0 | 0.00 | 0.00 | 0.00 | 94 | 1011.2 |
| 20260510095836 | 74 | 199 | 2.0 | 10.0 | 0.00 | 0.00 | 0.00 | 94 | 1011.2 |
| 20260510095321 | 74 | 164 | 3.0 | 10.0 | 0.00 | 0.00 | 0.00 | 94 | 1011.2 |
| 20260510094832 | 74 | 170 | 2.0 | 6.0 | 0.00 | 0.00 | 0.00 | 94 | 1011.2 |
| 20260510094358 | 74 | 185 | 3.0 | 7.0 | 0.00 | 0.00 | 0.00 | 94 | 1011.2 |
| 20260510093841 | 74 | 143 | 4.0 | 7.0 | 0.00 | 0.00 | 0.00 | 94 | 1011.2 |
| 20260510093326 | 74 | 137 | 4.0 | 10.0 | 0.00 | 0.00 | 0.00 | 94 | 1011.1 |
| 20260510092831 | 74 | 153 | 5.0 | 10.0 | 0.00 | 0.00 | 0.00 | 94 | 1011.1 |
| 20260510092333 | 74 | 202 | 3.0 | 6.0 | 0.00 | 0.00 | 0.00 | 94 | 1011.1 |
| 20260510091837 | 74 | 190 | 2.0 | 5.0 | 0.00 | 0.00 | 0.00 | 94 | 1011.2 |
| 20260510091324 | 74 | 175 | 3.0 | 5.0 | 0.00 | 0.00 | 0.00 | 94 | 1011.2 |
| 20260510090847 | 74 | 177 | 3.0 | 5.0 | 0.00 | 0.00 | 0.00 | 94 | 1011.2 |
| 20260510090330 | 74 | 147 | 1.0 | 3.0 | 0.00 | 0.00 | 0.00 | 93 | 1011.1 |
| 20260510085833 | 74 | 170 | 1.0 | 5.0 | 0.00 | 0.00 | 0.00 | 93 | 1011.1 |
| 20260510085338 | 74 | 179 | 3.0 | 5.0 | 0.00 | 0.00 | 0.00 | 93 | 1011.1 |
| 20260510084825 | 74 | 146 | 2.0 | 3.0 | 0.00 | 0.00 | 0.00 | 93 | 1011.2 |
| 20260510084351 | 74 | 191 | 1.0 | 3.0 | 0.00 | 0.00 | 0.00 | 93 | 1011.2 |
| 20260510083835 | 74 | 164 | 2.0 | 3.0 | 0.00 | 0.00 | 0.00 | 93 | 1011.2 |
| 20260510083323 | 74 | 176 | 1.0 | 3.0 | 0.00 | 0.00 | 0.00 | 93 | 1011.2 |
| 20260510082827 | 74 | 140 | 0.0 | 4.0 | 0.00 | 0.00 | 0.00 | 93 | 1011.2 |
| 20260510082332 | 74 | 196 | 1.0 | 5.0 | 0.00 | 0.00 | 0.00 | 93 | 1011.2 |
| 20260510081840 | 74 | 151 | 2.0 | 5.0 | 0.00 | 0.00 | 0.00 | 92 | 1011.1 |
| 20260510081344 | 75 | 185 | 3.0 | 5.0 | 0.00 | 0.00 | 0.00 | 92 | 1011.1 |
| 20260510080828 | 75 | 174 | 2.0 | 5.0 | 0.00 | 0.00 | 0.00 | 92 | 1011.1 |
| 20260510080332 | 75 | 186 | 2.0 | 5.0 | 0.00 | 0.00 | 0.00 | 92 | 1011.2 |
| 20260510075838 | 75 | 201 | 2.0 | 5.0 | 0.00 | 0.00 | 0.00 | 92 | 1011.2 |
| 20260510075322 | 75 | 154 | 2.0 | 5.0 | 0.00 | 0.00 | 0.00 | 92 | 1011.2 |
| 20260510074828 | 75 | 170 | 3.0 | 5.0 | 0.00 | 0.00 | 0.00 | 92 | 1011.2 |
| 20260510074333 | 75 | 196 | 2.0 | 5.0 | 0.00 | 0.00 | 0.00 | 92 | 1011.2 |
| 20260510073839 | 75 | 126 | 2.0 | 5.0 | 0.00 | 0.00 | 0.00 | 92 | 1011.2 |
| 20260510073325 | 75 | 182 | 2.0 | 5.0 | 0.00 | 0.00 | 0.00 | 92 | 1011.4 |
| 20260510072830 | 75 | 198 | 0.0 | 2.0 | 0.00 | 0.00 | 0.00 | 91 | 1011.4 |
| 20260510072333 | 75 | 198 | 1.0 | 2.0 | 0.00 | 0.00 | 0.00 | 91 | 1011.4 |
| 20260510071836 | 75 | 198 | 0.0 | 1.0 | 0.00 | 0.00 | 0.00 | 91 | 1011.4 |
| 20260510071319 | 75 | 198 | 0.0 | 3.0 | 0.00 | 0.00 | 0.00 | 90 | 1011.4 |
| 20260510070826 | 76 | 198 | 1.0 | 3.0 | 0.00 | 0.00 | 0.00 | 91 | 1011.4 |
| 20260510070329 | 76 | 136 | 1.0 | 3.0 | 0.00 | 0.00 | 0.00 | 90 | 1011.3 |
| 20260510065836 | 76 | 130 | 2.0 | 6.0 | 0.00 | 0.00 | 0.00 | 90 | 1011.3 |
| 20260510065319 | 76 | 139 | 3.0 | 6.0 | 0.00 | 0.00 | 0.00 | 90 | 1011.3 |
| 20260510064847 | 76 | 133 | 2.0 | 5.0 | 0.00 | 0.00 | 0.00 | 90 | 1011.3 |
| 20260510064350 | 76 | 172 | 3.0 | 6.0 | 0.00 | 0.00 | 0.00 | 89 | 1011.3 |
| 20260510063855 | 76 | 184 | 3.0 | 7.0 | 0.00 | 0.00 | 0.00 | 89 | 1011.3 |
| 20260510063338 | 76 | 168 | 1.0 | 7.0 | 0.00 | 0.00 | 0.00 | 89 | 1011.3 |
| 20260510062826 | 76 | 132 | 3.0 | 9.0 | 0.00 | 0.00 | 0.00 | 89 | 1011.3 |
| 20260510062333 | 76 | 137 | 6.0 | 9.0 | 0.00 | 0.00 | 0.00 | 89 | 1011.3 |
| 20260510061840 | 76 | 168 | 4.0 | 11.0 | 0.00 | 0.00 | 0.00 | 90 | 1011.5 |
| 20260510061324 | 76 | 127 | 3.0 | 11.0 | 0.00 | 0.00 | 0.00 | 90 | 1011.5 |
| 20260510060831 | 76 | 120 | 5.0 | 8.0 | 0.00 | 0.00 | 0.00 | 90 | 1011.5 |
| 20260510060336 | 76 | 210 | 3.0 | 9.0 | 0.00 | 0.00 | 0.00 | 90 | 1011.5 |
| 20260510055838 | 76 | 136 | 4.0 | 10.0 | 0.00 | 0.00 | 0.00 | 90 | 1011.5 |
| 20260510055322 | 76 | 126 | 5.0 | 10.0 | 0.00 | 0.00 | 0.00 | 90 | 1011.5 |
| 20260510054849 | 76 | 137 | 4.0 | 9.0 | 0.00 | 0.00 | 0.00 | 90 | 1011.7 |
| 20260510054331 | 76 | 119 | 6.0 | 10.0 | 0.00 | 0.00 | 0.00 | 90 | 1011.7 |
| 20260510053859 | 76 | 139 | 3.0 | 10.0 | 0.00 | 0.00 | 0.00 | 89 | 1011.7 |
| 20260510053403 | 76 | 129 | 4.0 | 8.0 | 0.00 | 0.00 | 0.00 | 89 | 1011.7 |
| 20260510052825 | 76 | 136 | 4.0 | 9.0 | 0.00 | 0.00 | 0.00 | 88 | 1011.7 |
| 20260510052331 | 76 | 130 | 4.0 | 9.0 | 0.00 | 0.00 | 0.00 | 88 | 1011.7 |
| 20260510051841 | 76 | 137 | 5.0 | 9.0 | 0.00 | 0.00 | 0.00 | 88 | 1011.7 |
| 20260510051327 | 76 | 130 | 4.0 | 9.0 | 0.00 | 0.00 | 0.00 | 88 | 1011.7 |
| 20260510050833 | 76 | 130 | 4.0 | 7.0 | 0.00 | 0.00 | 0.00 | 88 | 1011.7 |
| 20260510050335 | 76 | 137 | 1.0 | 6.0 | 0.00 | 0.00 | 0.00 | 88 | 1011.7 |
| 20260510045837 | 76 | 73 | 2.0 | 9.0 | 0.00 | 0.00 | 0.00 | 88 | 1011.7 |
| 20260510045324 | 76 | 134 | 3.0 | 9.0 | 0.00 | 0.00 | 0.00 | 88 | 1011.7 |
| 20260510044848 | 77 | 123 | 5.0 | 10.0 | 0.00 | 0.00 | 0.00 | 88 | 1011.8 |
| 20260510044334 | 77 | 133 | 6.0 | 12.0 | 0.00 | 0.00 | 0.00 | 88 | 1011.8 |
| 20260510043838 | 77 | 125 | 6.0 | 10.0 | 0.00 | 0.00 | 0.00 | 88 | 1011.8 |
| 20260510043341 | 77 | 148 | 3.0 | 10.0 | 0.00 | 0.00 | 0.00 | 87 | 1011.8 |
| 20260510042825 | 77 | 130 | 3.0 | 10.0 | 0.00 | 0.00 | 0.00 | 87 | 1011.8 |
| 20260510042329 | 77 | 129 | 5.0 | 11.0 | 0.00 | 0.00 | 0.00 | 87 | 1011.8 |
| 20260510041837 | 77 | 125 | 8.0 | 12.0 | 0.00 | 0.00 | 0.00 | 87 | 1011.8 |
| 20260510041321 | 77 | 132 | 4.0 | 12.0 | 0.00 | 0.00 | 0.00 | 87 | 1011.8 |
| 20260510040829 | 77 | 127 | 6.0 | 12.0 | 0.00 | 0.00 | 0.00 | 88 | 1011.8 |
| 20260510040333 | 77 | 132 | 8.0 | 12.0 | 0.00 | 0.00 | 0.00 | 87 | 1011.8 |
| 20260510035857 | 77 | 127 | 4.0 | 6.0 | 0.00 | 0.00 | 0.00 | 87 | 1011.8 |
| 20260510035341 | 77 | 135 | 4.0 | 9.0 | 0.00 | 0.00 | 0.00 | 87 | 1011.8 |
| 20260510034825 | 77 | 128 | 5.0 | 10.0 | 0.00 | 0.00 | 0.00 | 87 | 1012.1 |
| 20260510034329 | 77 | 121 | 3.0 | 15.0 | 0.00 | 0.00 | 0.00 | 87 | 1012.1 |
| 20260510033834 | 77 | 119 | 9.0 | 15.0 | 0.00 | 0.00 | 0.00 | 87 | 1012.1 |
| 20260510033338 | 78 | 93 | 2.0 | 11.0 | 0.00 | 0.00 | 0.00 | 88 | 1011.9 |
| 20260510032822 | 78 | 120 | 1.0 | 7.0 | 0.00 | 0.00 | 0.00 | 88 | 1011.9 |
| 20260510032330 | 78 | 111 | 3.0 | 11.0 | 0.00 | 0.00 | 0.00 | 88 | 1011.9 |
| 20260510031854 | 78 | 127 | 5.0 | 13.0 | 0.00 | 0.00 | 0.00 | 88 | 1011.8 |
| 20260510031342 | 78 | 135 | 5.0 | 17.0 | 0.00 | 0.00 | 0.00 | 87 | 1011.8 |
| 20260510030824 | 78 | 120 | 11.0 | 17.0 | 0.00 | 0.00 | 0.00 | 87 | 1011.8 |
| 20260510030347 | 78 | 96 | 11.0 | 16.0 | 0.00 | 0.00 | 0.00 | 87 | 1011.7 |
| 20260510025829 | 78 | 134 | 5.0 | 11.0 | 0.00 | 0.00 | 0.00 | 86 | 1011.7 |
| 20260510025336 | 78 | 85 | 3.0 | 6.0 | 0.00 | 0.00 | 0.00 | 84 | 1011.7 |
| 20260510024823 | 78 | 73 | 2.0 | 3.0 | 0.00 | 0.00 | 0.00 | 83 | 1010.9 |
| 20260510024331 | 78 | 75 | 0.0 | 2.0 | 0.00 | 0.00 | 0.00 | 83 | 1010.9 |
| 20260510023835 | 78 | 42 | 0.0 | 4.0 | 0.00 | 0.00 | 0.00 | 82 | 1010.9 |
| 20260510023338 | 78 | 104 | 2.0 | 4.0 | 0.00 | 0.00 | 0.00 | 81 | 1010.4 |
| 20260510022822 | 78 | 135 | 2.0 | 4.0 | 0.00 | 0.00 | 0.00 | 80 | 1010.4 |
| 20260510022347 | 78 | 135 | 1.0 | 4.0 | 0.00 | 0.00 | 0.00 | 80 | 1010.4 |
| 20260510021850 | 78 | 123 | 0.0 | 7.0 | 0.00 | 0.00 | 0.00 | 79 | 1010.2 |
| 20260510021355 | 78 | 126 | 4.0 | 7.0 | 0.00 | 0.00 | 0.00 | 78 | 1010.2 |
| 20260510020838 | 78 | 143 | 4.0 | 6.0 | 0.00 | 0.00 | 0.00 | 78 | 1010.2 |
| 20260510020325 | 78 | 135 | 3.0 | 6.0 | 0.00 | 0.00 | 0.00 | 77 | 1009.6 |
| 20260510015827 | 78 | 124 | 4.0 | 6.0 | 0.00 | 0.00 | 0.00 | 77 | 1009.6 |
| 20260510015331 | 78 | 84 | 0.0 | 0.0 | 0.00 | 0.00 | 0.00 | 75 | 1009.6 |
| 20260510014839 | 78 | 84 | 0.0 | 0.0 | 0.00 | 0.00 | 0.00 | 75 | 1009.3 |
| 20260510014323 | 78 | 84 | 0.0 | 0.0 | 0.00 | 0.00 | 0.00 | 74 | 1009.3 |
| 20260510013825 | 79 | 84 | 0.0 | 0.0 | 0.00 | 0.00 | 0.00 | 73 | 1009.3 |
| 20260510013350 | 79 | 84 | 0.0 | 0.0 | 0.00 | 0.00 | 0.00 | 72 | 1009.5 |
| 20260510012837 | 80 | 84 | 0.0 | 0.0 | 0.00 | 0.00 | 0.00 | 71 | 1009.5 |
| 20260510012323 | 80 | 84 | 0.0 | 0.0 | 0.00 | 0.00 | 0.00 | 70 | 1009.5 |
| 20260510011829 | 80 | 84 | 0.0 | 2.0 | 0.00 | 0.00 | 0.00 | 70 | 1009.6 |
| 20260510011354 | 81 | 93 | 0.0 | 2.0 | 0.00 | 0.00 | 0.00 | 70 | 1009.6 |
| 20260510010838 | 81 | 9 | 0.0 | 7.0 | 0.00 | 0.00 | 0.00 | 70 | 1009.6 |
| 20260510010322 | 82 | 46 | 2.0 | 5.0 | 0.00 | 0.00 | 0.00 | 68 | 1009.0 |
| 20260510005846 | 82 | 9 | 2.0 | 9.0 | 0.00 | 0.00 | 0.00 | 62 | 1009.0 |
| 20260510005330 | 83 | 172 | 2.0 | 9.0 | 0.00 | 0.00 | 0.00 | 58 | 1009.0 |
| 20260510004834 | 83 | 178 | 2.0 | 6.0 | 0.00 | 0.00 | 0.00 | 59 | 1008.6 |
| 20260510004326 | 82 | 164 | 2.0 | 7.0 | 0.00 | 0.00 | 0.00 | 59 | 1008.6 |
| 20260510003829 | 82 | 181 | 3.0 | 7.0 | 0.00 | 0.00 | 0.00 | 61 | 1008.6 |
| 20260510003354 | 82 | 145 | 3.0 | 12.0 | 0.00 | 0.00 | 0.00 | 61 | 1008.7 |
| 20260510002835 | 83 | 183 | 4.0 | 13.0 | 0.00 | 0.00 | 0.00 | 60 | 1008.7 |
| 20260510002340 | 84 | 160 | 6.0 | 13.0 | 0.00 | 0.00 | 0.00 | 58 | 1008.7 |
| 20260510001826 | 86 | 175 | 4.0 | 7.0 | 0.00 | 0.00 | 0.00 | 65 | 1008.6 |
| 20260510001329 | 86 | 176 | 4.0 | 5.0 | 0.00 | 0.00 | 0.00 | 66 | 1008.6 |
| 20260510000832 | 86 | 152 | 3.0 | 7.0 | 0.00 | 0.00 | 0.00 | 67 | 1008.6 |
| 20260510000335 | 86 | 161 | 2.0 | 7.0 | 0.00 | 0.00 | 0.00 | 67 | 1008.4 |
| 20260509235837 | 87 | 198 | 3.0 | 7.0 | 0.00 | 0.00 | 0.00 | 67 | 1008.4 |
| 20260509235342 | 87 | 184 | 3.0 | 7.0 | 0.00 | 0.00 | 0.00 | 67 | 1008.4 |
| 20260509234826 | 87 | 205 | 0.0 | 7.0 | 0.00 | 0.00 | 0.00 | 67 | 1008.2 |
| 20260509234330 | 87 | 168 | 4.0 | 7.0 | 0.00 | 0.00 | 0.00 | 66 | 1008.2 |
| 20260509233832 | 88 | 236 | 0.0 | 0.0 | 0.00 | 0.00 | 0.00 | 71 | 1008.2 |
| 20260509233341 | 88 | 236 | 0.0 | 0.0 | 0.00 | 0.00 | 0.00 | 70 | 1008.1 |
| 20260509232826 | 88 | 236 | 0.0 | 0.0 | 0.00 | 0.00 | 0.00 | 67 | 1008.1 |
| 20260509232331 | 88 | 236 | 0.0 | 0.0 | 0.00 | 0.00 | 0.00 | 68 | 1008.1 |
| 20260509231835 | 89 | 236 | 0.0 | 0.0 | 0.00 | 0.00 | 0.00 | 66 | 1008.3 |
| 20260509231339 | 89 | 236 | 0.0 | 0.0 | 0.00 | 0.00 | 0.00 | 66 | 1008.3 |
| 20260509230844 | 89 | 236 | 0.0 | 0.0 | 0.00 | 0.00 | 0.00 | 65 | 1008.3 |
| 20260509230347 | 89 | 236 | 0.0 | 0.0 | 0.00 | 0.00 | 0.00 | 65 | 1008.1 |
| 20260509225828 | 89 | 236 | 0.0 | 0.0 | 0.00 | 0.00 | 0.00 | 63 | 1008.1 |
| 20260509225332 | 90 | 236 | 0.0 | 0.0 | 0.00 | 0.00 | 0.00 | 62 | 1008.1 |
| 20260509224900 | 90 | 236 | 0.0 | 0.0 | 0.00 | 0.00 | 0.00 | 60 | 1008.1 |
| 20260509224323 | 91 | 236 | 0.0 | 1.0 | 0.00 | 0.00 | 0.00 | 59 | 1008.1 |
| 20260509223832 | 92 | 236 | 0.0 | 2.0 | 0.00 | 0.00 | 0.00 | 59 | 1008.1 |
| 20260509223320 | 92 | 236 | 1.0 | 3.0 | 0.00 | 0.00 | 0.00 | 59 | 1008.1 |
| 20260509222827 | 92 | 236 | 1.0 | 3.0 | 0.00 | 0.00 | 0.00 | 59 | 1008.1 |
| 20260509222351 | 92 | 248 | 0.0 | 3.0 | 0.00 | 0.00 | 0.00 | 58 | 1008.1 |
| 20260509221854 | 92 | 254 | 1.0 | 2.0 | 0.00 | 0.00 | 0.00 | 60 | 1008.0 |
| 20260509221401 | 91 | 254 | 0.0 | 4.0 | 0.00 | 0.00 | 0.00 | 61 | 1008.0 |
| 20260509220826 | 91 | 254 | 2.0 | 4.0 | 0.00 | 0.00 | 0.00 | 61 | 1008.0 |
| 20260509220330 | 91 | 316 | 2.0 | 3.0 | 0.00 | 0.00 | 0.00 | 62 | 1008.0 |
| 20260509215835 | 90 | 316 | 1.0 | 5.0 | 0.00 | 0.00 | 0.00 | 63 | 1008.0 |
| 20260509215340 | 90 | 316 | 0.0 | 5.0 | 0.00 | 0.00 | 0.00 | 64 | 1008.0 |